OpenBCM V1.13 (Linux)

Packet Radio Mailbox

DB0FHN

[JN59NK Nuernberg]

 Login: GUEST





  
ON5GS  > KEPLER   28.12.02 03:32l 14 Lines 399 Bytes #999 (0) @ WW
BID : H7Q7XC_ON5VL
Read: DB0FHN GUEST
Subj: SAFIR KEPS (previous were wrong sri)
Path: DB0FHN<DB0ZWI<DB0HDF<DB0ERF<DB0FBB<DB0IUZ<DB0ACH<DB0MKA<DB0NDK<LX0PAC<
      LX0HST<HA3PG<WB0TAX<ON0AR<ON0RAT<ON5VL
Sent: 021226/1228z @:ON5VL.#LG.BEL.EU [Liege (ON5NI)] DP6.00 $:H7Q7XC_ON5VL
From: ON5GS @ ON5VL.#LG.BEL.EU (Dirk)
To:   KEPLER @ WW 
X-Info: Upload without password authentication

Hello all
sri for previous keps message, got the wrong datas
Safir is PAYLOAD A
Only to copy when sat is in sunlight

PAYLOAD A               
1 27605U 02058A   02357.96299845  .00000976  00000-0  17781-3 0   354
2 27605  64.5612   9.1160 0031585 133.9052 226.4667 14.71329941   484


73 ON5GS


Read previous mail | Read next mail


 13.09.2026 14:06:20lGo back Go up